Alexandria, LA

7:20 PM CDT on August 25, 2016 (GMT -0500)
Alexandria International

Weather History for KAEX - January, 1999

Change the Weather History Date:

Thursday, January 28, 1999

  Actual Average Record
Temperature  
Mean Temperature 65 °F 49 °F  
Max Temperature 73 °F 60 °F 82 °F (1957)
Min Temperature 57 °F 38 °F 17 °F (1897)
Degree Days  
Heating Degree Days 0 16  
Month to date heating degree days 448  
Since 1 July heating degree days 1237  
Growing Degree Days 15 (Base 50)    
Moisture  
Dew Point 64 °F    
Average Humidity 94    
Maximum Humidity 100    
Minimum Humidity 73    
Precipitation  
Precipitation 0.00 in 0.20 in 3.47 in (1994)
Month to date precipitation 4.59  
Year to date precipitation 4.59  
Sea Level Pressure  
Sea Level Pressure 30.03 in    
Wind  
Wind Speed 8 mph (ESE)    
Max Wind Speed 14 mph    
Max Gust Speed -    
Visibility 4 miles    
Events Fog , Rain    
T = Trace of Precipitation, MM = Missing Value Source: NWS Daily Summary

Daily Weather History Graph

Daily Weather History Graph

Search for Another Location

Airport or City:

Trip Planner

Search our weather history database for the weather conditions in past years. The results will help you decide how hot, cold, wet, or windy it might be!

Date:

Astronomy

Jan. 28, 1999 Rise Set
Actual Time 7:05 AM CST 5:41 PM CST
Civil Twilight 6:39 AM CST 6:07 PM CST
Nautical Twilight 6:10 AM CST 6:36 PM CST
Astronomical Twilight 5:41 AM CST 7:05 PM CST
Moon 3:01 PM CST (1/28) 4:12 AM CST (1/28)
Length of Visible Light 11h 27m
Length of Day
10h 36m
Waxing Gibbous, 89% of the Moon is Illuminated
Jan 28
Waxing Gibbous
Jan 31
Full
Feb 8
Last Quarter
Feb 16
New
Feb 22
First Quarter

Hourly Weather History & Observations

Time (CST) Temp. Dew Point Humidity Pressure Visibility Wind Dir Wind Speed Gust Speed Precip Events Conditions
12:50 AM 57.2 °F 57.2 °F 100% 30.05 in 77.0 mi SE 5.8 mph - N/A   Scattered Clouds
1:50 AM 57.2 °F 55.4 °F 94% 30.06 in 7.0 mi SE 5.8 mph - N/A   Mostly Cloudy
3:50 AM 62.6 °F 62.6 °F 100% 30.05 in 5.0 mi SE 5.8 mph - N/A   Overcast
4:50 AM 62.6 °F 62.6 °F 100% 30.05 in 5.0 mi SE 5.8 mph - N/A   Overcast
5:50 AM 64.4 °F 62.6 °F 94% 30.06 in 2.0 mi ESE 8.1 mph - N/A   Overcast
6:20 AM 62.6 °F 62.6 °F 100% 30.06 in 0.5 mi ESE 5.8 mph - N/A Fog Fog
6:50 AM 64.4 °F 62.6 °F 94% 30.06 in 0.2 mi SE 8.1 mph - N/A Fog Fog
7:50 AM 64.4 °F 64.4 °F 100% 30.06 in 0.2 mi ESE 9.2 mph - N/A Fog Fog
8:50 AM 64.4 °F 64.4 °F 100% 30.07 in 0.5 mi ESE 11.5 mph - N/A Fog Fog
9:30 AM 66.2 °F 66.2 °F 100% 30.08 in 0.8 mi ESE 11.5 mph - N/A   Haze
9:50 AM 66.2 °F 66.2 °F 100% 30.08 in 0.8 mi SE 9.2 mph - N/A   Haze
10:06 AM 66.2 °F 66.2 °F 100% 30.08 in 1.0 mi ESE 11.5 mph - N/A   Haze
10:50 AM 66.2 °F 66.2 °F 100% 30.08 in 1.5 mi SE 13.8 mph - N/A   Overcast
11:50 AM 69.8 °F 66.2 °F 88% 30.06 in 1.5 mi SE 11.5 mph - N/A Rain Light Rain
12:50 PM 71.6 °F 66.2 °F 83% 30.02 in 4.0 mi ESE 11.5 mph - N/A   Mostly Cloudy
1:50 PM 71.6 °F 64.4 °F 78% 29.99 in 4.0 mi ESE 9.2 mph - N/A   Overcast
2:50 PM 73.4 °F 64.4 °F 73% 29.96 in 5.0 mi SE 13.8 mph - N/A   Overcast
7:50 PM 66.2 °F 64.4 °F 94% 29.97 in 10.0 mi East 8.1 mph - N/A   Partly Cloudy
8:50 PM 66.2 °F 64.4 °F 94% 29.96 in 10.0 mi ESE 11.5 mph - N/A   Clear
9:50 PM 66.2 °F 64.4 °F 94% 29.95 in 7.0 mi East 9.2 mph - N/A   Overcast
10:50 PM 66.2 °F 64.4 °F 94% 29.94 in 5.0 mi ESE 11.5 mph - N/A   Overcast